STARLINK-33592 (62765 NORAD) Tracking and Keplerian Element Data

This shows tracking and keplerian element data for the satellite.

Feedback or suggestion? Click here.




ElementValue
Catalog62765
NameSTARLINK-33592
Epoch Orbit327
Epoch Day35.25001157
Epoch Year2025
RAAN18.6934
Inclination53.1599
Eccentricity0.0001266
Argument of Perigee80.1369
Mean Anonmoly188.7273
Mean Motion15.78784864
Decay Rate-0.00982292
L11 62765U 25015H 25035.25001157 -.00982292 00000+0 -61334-2 0 9997
L22 62765 53.1599 18.6934 0001266 80.1369 188.7273 15.78784864 3279



Live tracking and technical data element details for STARLINK-33592 (NORAD 62765). STARLINK-33592 can be tracked NOW for your location showing map with azimuth and elevation plus other details from your city location.







IsCatalogInMostPopularTable: catalog: 62765, numindb: 4
Update: records affected: 1



GetName: 62765 STARLINK-33592

Hit Count: updated at: Sun, 09 Feb 2025 14:41:37 GMT